Location: Hamilton
(37.7830°S, 175.2830°E)
Time: 09:41:51
(UTC+13:00)

Cosmos 1763 Rocket - Pass Details

Date: 24 January 2019
Orbit: 733 x 780 km, 74.0° (Epoch: 17 February)

Event Time Altitude Azimuth Distance (km) Brightness Sun altitude
Rises 22:23:55 0° 203° (SSW) 3,260 8.0 -18.0°
Reaches altitude 10° 22:26:21 10° 206° (SSW) 2,319 7.1 -18.4°
Maximum altitude 22:31:31 58° 284° (WNW) 886 3.9 -19.1°
Enters shadow 22:34:29 24° 354° (N) 1,516 4.7 -19.5°
